DSN-3 (KIRAMEKI-3)

Last updated on Thu Oct 30 2025 00:02:52 GMT+0000 (Coordinated Universal Time)

1 61733U 24198A 25302.53377932 -.00000240 00000+0 00000+0 0 9990 2 61733 0.0332 81.4374 0001214 111.4757 181.4584 1.00272477 3601
UTC large
Height (km)
Speed (km/s)
/
Latitude / Longitude
Inclination (degrees)
Orbital Period (minutes)
Azimuth
Elevation
Range (km)
Doppler Factor

Next 0 passes for location: London (51.5072 / 0.1276)

Sorry there are no passes over London.